Dewpoint
72 73 74 74 73 73 73 73 74 73 73 73 74 73 72 71 71 72 72 70 69 71 71 71 72 73 67 64 65 68 68 65 63 62 65 68 73 72 70 71 71 71 70
65 66 69 73 74 72 71 69 73 74 73 73 73 74 73 72 72 72 71 69 70 70 70 71 71 68 72 71 66 71 74 71 66 68 69 67 73 72 74 73 70 66 68
57 57 62 63 65 70 71 72 72 71 71 71 73 73 73 72 72 72 72 71 70 69 70 71 71 72 74 69 68 66 67 70 70 67 65 66 67 69 74 74 74 72 67
58 58 61 61 60 62 65 67 68 71 72 72 73 74 73 73 72 71 71 71 71 70 71 71 71 72 75 75 71 72 69 70 72 72 66 64 65 70 73 73 71 70 70
62 62 63 64 65 65 66 66 65 65 66 69 71 73 74 74 74 74 74 73 73 71 71 71 72 71 70 72 76 74 75 69 65 68 70 71 66 63 72 66 66 66 71
64 63 65 67 68 68 68 68 68 67 67 67 67 67 68 67 66 67 70 73 73 74 74 72 72 71 70 68 68 68 72 73 71 64 66 72 74 69 66 65 64 76 70
64 64 65 66 66 67 67 67 67 68 68 68 68 67 67 67 64 67 68 69 70 71 72 74 72 67 70 71 68 67 67 66 68 71 71 72 74 75 76 76 73 74 68
63 63 64 65 64 65 65 65 66 66 66 66 66 67 67 66 63 65 67 69 67 69 71 72 73 74 71 71 70 70 71 71 70 69 70 70 71 72 76 76 75 76 76
60 62 63 64 64 65 65 65 65 65 65 65 65 66 66 66 62 62 66 65 63 66 68 70 71 72 68 64 73 70 70 69 65 65 66 65 64 65 70 73 67 66 64
61 62 63 64 64 63 64 65 65 65 65 63 64 65 63 66 62 60 63 62 61 59 67 68 64 68 63 62 71 72 73 72 69 68 70 68 67 70 65 72 68 68 69
62 61 61 61 61 62 62 63 63 63 64 65 64 65 66 66 66 59 59 65 61 59 59 60 60 62 61 60 61 70 68 71 71 71 69 68 67 68 69 70 71 69 69
60 60 60 60 58 59 61 61 62 63 63 61 62 61 61 66 61 60 59 59 63 63 62 60 62 58 58 58 60 63 60 63 73 73 71 70 66 64 65 67 73 72 71
57 57 57 58 58 59 59 59 58 60 59 58 58 58 59 60 61 57 57 58 58 62 63 59 57 57 56 58 57 59 60 66 65 70 69 67 68 64 69 71 76 77 75
56 56 57 57 57 58 57 57 57 57 58 58 60 60 59 60 60 63 65 64 60 61 61 61 60 60 60 62 64 60 62 65 65 64 63 65 66 69 66 67 76 75 74
56 56 55 56 56 57 58 58 59 59 58 58 58 59 60 59 59 56 55 59 62 62 59 66 68 67 64 63 64 65 66 66 65 65 64 63 63 68 69 70 71 74 73
56 55 55 55 55 56 56 57 54 53 51 49 48 52 58 54 52 50 49 48 48 49 58 61 61 63 64 65 65 65 67 63 63 64 64 64 63 62 63 70 74 73 72
56 55 53 53 54 54 55 56 54 54 51 49 47 47 46 48 47 46 45 44 45 47 56 59 61 61 62 62 63 65 62 61 66 60 59 61 60 60 59 59 61 68 70
54 52 53 53 53 53 53 54 54 53 53 54 52 52 50 46 46 46 46 44 55 51 57 59 59 60 61 62 62 63 66 65 66 64 63 61 59 59 59 59 60 61 67
51 52 52 52 53 53 53 52 52 51 51 52 52 50 50 46 45 45 44 52 56 58 59 59 58 59 60 63 62 62 67 66 67 66 65 63 64 63 62 64 60 56 61
47 52 50 49 49 49 49 50 50 50 50 49 49 50 49 48 49 50 52 55 56 56 59 61 62 63 62 64 65 64 63 63 66 65 65 65 66 66 66 65 64 64 66
40 41 49 42 43 44 46 46 46 48 49 49 49 49 45 48 48 49 51 52 57 58 59 62 64 66 67 67 65 63 63 62 62 62 63 65 65 62 63 65 64 65 65
41 40 39 41 41 41 41 43 45 45 46 48 49 48 45 49 49 48 49 50 52 54 59 63 64 64 64 64 64 64 61 61 62 63 63 64 64 65 66 65 63 62 63
39 38 38 38 39 42 39 40 41 45 46 47 48 48 48 49 48 48 48 48 50 51 51 52 52 52 52 52 56 60 61 62 62 63 64 64 64 66 66 66 66 66 65
38 39 40 39 38 37 37 38 40 42 45 46 47 48 49 49 49 48 49 48 49 49 50 50 49 49 48 48 48 48 47 44 42 46 53 57 63 63 64 65 65 66 65
36 39 40 41 41 40 38 37 39 42 45 45 46 46 47 47 48 48 48 48 48 48 48 48 48 48 47 45 44 42 38 34 37 38 43 52 56 59 63 63 65 66 66
38 40 40 41 42 41 40 39 39 41 43 45 45 45 46 46 46 46 47 48 47 47 47 48 47 47 47 44 41 36 33 32 35 33 38 46 53 57 59 62 63 66 65
Lifted_Index
-5 -5 -6 -6 -6 -5 -5 -5 -5 -5 -5 -4 -4 -4 -4 -4 -3 -3 -3 -3 -3 -3 -4 -4 -5 -4 -4 -3 -3 -4 -4 -4 -3 -3 -3 -4 -5 -5 -5 -5 -4 -4 -4
-2 -2 -3 -4 -4 -4 -4 -4 -5 -5 -4 -4 -4 -4 -4 -4 -4 -3 -3 -3 -3 -3 -4 -4 -4 -4 -4 -4 -3 -4 -4 -4 -4 -3 -4 -4 -5 -5 -5 -5 -5 -4 -4
2 1 0 -1 -1 -2 -2 -3 -3 -3 -3 -4 -4 -4 -4 -4 -4 -4 -3 -3 -3 -3 -4 -4 -4 -4 -5 -5 -4 -4 -4 -4 -4 -4 -4 -4 -4 -5 -5 -5 -5 -4 -4
2 2 2 2 1 1 0 -1 -1 -2 -2 -3 -3 -4 -4 -4 -4 -4 -4 -4 -4 -4 -4 -4 -4 -4 -5 -5 -5 -4 -4 -4 -4 -4 -4 -4 -4 -4 -5 -5 -4 -4 -4
2 2 1 1 1 1 1 1 1 0 -0 -1 -2 -3 -3 -3 -4 -4 -4 -4 -4 -4 -4 -4 -5 -4 -5 -5 -5 -4 -4 -4 -4 -4 -4 -4 -4 -4 -4 -4 -4 -4 -4
1 1 1 1 1 1 1 1 1 1 1 0 -0 -1 -1 -2 -2 -3 -3 -3 -4 -4 -4 -4 -5 -5 -4 -4 -4 -4 -4 -4 -4 -4 -4 -5 -5 -5 -4 -4 -4 -4 -5
2 2 2 2 2 2 2 1 1 1 1 1 1 1 0 0 -0 -1 -1 -2 -2 -3 -3 -4 -4 -4 -5 -5 -4 -4 -3 -4 -4 -4 -4 -5 -5 -5 -5 -5 -5 -5 -5
3 3 3 3 3 3 3 2 2 2 2 1 1 1 1 1 1 1 0 0 -0 -1 -2 -3 -4 -4 -4 -5 -5 -5 -4 -4 -4 -4 -4 -5 -5 -5 -5 -5 -5 -5 -5
3 3 3 3 3 3 3 3 3 2 2 2 2 2 2 1 1 1 1 2 2 1 -0 -1 -2 -3 -4 -5 -5 -5 -5 -5 -4 -4 -5 -5 -5 -5 -5 -5 -5 -5 -5
3 3 4 4 4 4 4 3 3 3 3 2 2 2 2 2 2 2 2 2 2 2 1 0 -1 -2 -3 -4 -5 -5 -5 -5 -5 -5 -5 -5 -5 -5 -5 -5 -5 -5 -5
4 4 5 5 5 5 5 4 4 4 3 3 3 3 2 2 2 2 2 2 2 2 2 1 0 -1 -2 -3 -4 -4 -4 -4 -5 -5 -5 -5 -5 -5 -5 -5 -6 -6 -6
5 6 6 6 6 6 6 6 5 4 4 4 4 4 3 2 2 2 2 2 2 2 2 1 1 -0 -2 -3 -3 -3 -3 -3 -4 -5 -5 -5 -5 -5 -5 -6 -6 -7 -7
7 7 7 7 7 6 6 6 5 5 5 5 5 4 4 3 3 2 2 2 2 2 2 1 1 0 -1 -2 -3 -3 -3 -3 -3 -4 -4 -4 -4 -4 -5 -6 -7 -7 -7
7 7 7 7 6 6 6 6 5 5 5 5 5 5 4 4 3 2 2 2 1 1 1 1 0 0 -0 -1 -2 -2 -3 -3 -3 -3 -3 -3 -3 -4 -4 -5 -6 -6 -7
6 6 6 6 6 6 6 6 5 5 5 5 5 5 5 4 3 3 2 1 1 1 1 0 -0 -1 -1 -1 -1 -2 -2 -2 -2 -2 -2 -2 -2 -3 -3 -4 -5 -6 -6
6 6 6 6 6 6 6 6 5 5 5 5 5 5 4 4 3 3 2 2 2 2 1 1 -0 -1 -1 -1 -1 -2 -2 -2 -2 -1 -1 -1 -1 -2 -2 -3 -4 -5 -5
6 6 6 6 6 6 6 6 5 5 5 5 5 4 4 4 3 3 2 2 2 2 2 2 1 0 -1 -1 -1 -1 -2 -2 -1 -1 -1 -1 -1 -1 -1 -1 -2 -3 -4
7 7 7 7 7 6 6 6 5 5 4 4 4 4 4 4 3 3 2 2 2 2 2 1 1 0 -0 -1 -1 -1 -2 -2 -2 -2 -1 -1 -1 -1 -1 -1 -1 -2 -2
7 8 8 8 7 7 7 7 6 6 5 5 5 4 4 4 3 3 2 2 2 2 1 1 0 -0 -1 -1 -2 -2 -2 -2 -3 -2 -2 -2 -2 -2 -2 -2 -1 -1 -2
8 8 9 8 8 8 8 8 8 7 7 6 5 5 4 4 3 2 2 2 2 2 1 0 -0 -1 -1 -2 -2 -2 -2 -2 -2 -2 -2 -2 -3 -2 -2 -2 -2 -2 -2
9 9 10 9 9 9 9 9 9 9 8 7 6 6 5 5 4 3 2 2 2 2 1 0 -0 -1 -2 -2 -2 -2 -2 -2 -2 -2 -2 -2 -2 -2 -2 -2 -2 -2 -2
10 10 10 10 10 10 10 10 9 10 10 9 8 7 6 6 5 4 3 3 3 2 1 0 -0 -1 -1 -2 -2 -2 -2 -2 -2 -2 -2 -2 -2 -2 -2 -2 -2 -2 -2
9 10 10 10 10 11 10 10 10 10 11 11 10 9 8 7 6 6 5 5 4 4 2 1 1 0 -0 -1 -1 -1 -1 -2 -2 -2 -2 -2 -2 -2 -2 -2 -2 -2 -2
9 9 10 10 10 10 11 11 11 11 11 11 12 12 11 9 8 8 7 7 6 5 4 4 3 2 1 1 0 -0 -1 -1 -1 -1 -1 -1 -1 -1 -1 -1 -2 -2 -2
8 9 9 9 9 10 10 11 11 11 11 11 12 13 13 12 11 11 9 9 8 7 6 6 5 5 4 3 2 1 1 0 -0 -1 -1 -0 0 1 1 -0 -1 -2 -2
8 8 8 8 9 9 10 10 11 11 11 11 12 13 13 13 13 13 12 10 9 8 7 7 6 6 5 5 4 3 2 1 0 -0 -0 0 1 2 1 1 -1 -2 -2